This is the latest recevied weather packets stored in our database for station/object K7D3. If no packets are shown the sender has not sent any weather packets the latest 10 day(s).
| Time | Temp. | Humidity | Pressure | Rain* | Wind** | Luminosity | Snow |
|---|---|---|---|---|---|---|---|
| 1777934436 | 22.78° C | 28% | - | 0 mm | 7.15 m/s, 250° | - | - |
| 1777933958 | 22.22° C | 28% | - | 0 mm | 6.26 m/s, 248° | - | - |
| 1777933476 | 22.78° C | 27% | - | 0 mm | 7.15 m/s, 252° | - | - |
| 1777932997 | 22.22° C | 28% | - | 0 mm | 8.05 m/s, 273° | - | - |
| 1777932518 | 22.78° C | 28% | - | 0 mm | 5.36 m/s, 239° | - | - |
| 1777932036 | 22.22° C | 28% | - | 0 mm | 7.6 m/s, 259° | - | - |
| 1777931558 | 22.78° C | 27% | - | 0 mm | 6.71 m/s, 248° | - | - |
| 1777931079 | 22.78° C | 28% | - | 0 mm | 7.6 m/s, 252° | - | - |
| 1777930597 | 22.78° C | 28% | - | 0 mm | 6.26 m/s, 257° | - | - |
| 1777930118 | 22.78° C | 28% | - | 0 mm | 5.81 m/s, 246° | - | - |
| 1777929640 | 22.78° C | 27% | - | 0 mm | 7.15 m/s, 245° | - | - |
| 1777929157 | 22.78° C | 26% | - | 0 mm | 6.71 m/s, 269° | - | - |
| 1777928679 | 22.22° C | 26% | - | 0 mm | 8.05 m/s, 308° | - | - |
| 1777928200 | 22.22° C | 24% | - | 0 mm | 8.94 m/s, 266° | - | - |
| 1777927718 | 22.22° C | 26% | - | 0 mm | 7.15 m/s, 245° | - | - |
| 1777927240 | 22.22° C | 24% | - | 0 mm | 6.71 m/s, 276° | - | - |
| 1777926761 | 22.22° C | 24% | - | 0 mm | 7.15 m/s, 270° | - | - |
| 1777926279 | 22.78° C | 23% | - | 0 mm | 6.26 m/s, 239° | - | - |
| 1777925800 | 22.22° C | 22% | - | 0 mm | 7.6 m/s, 242° | - | - |
| 1777925322 | 22.22° C | 22% | - | 0 mm | 8.05 m/s, 266° | - | - |
| 1777924840 | 22.22° C | 22% | - | 0 mm | 6.26 m/s, 277° | - | - |
| 1777924361 | 22.22° C | 21% | - | 0 mm | 7.15 m/s, 277° | - | - |
| 1777923883 | 22.78° C | 23% | - | 0 mm | 4.92 m/s, 288° | - | - |
| 1777923401 | 22.78° C | 21% | - | 0 mm | 8.94 m/s, 256° | - | - |
| 1777922922 | 22.78° C | 19% | - | 0 mm | 7.6 m/s, 287° | - | - |
* Rain latest hour (hover to see other rain measurements)
** Current wind speed in m/s (hover to see current wind gust speed)